This is the latest recevied weather packets stored in our database for station/object SP1BMW-13. If no packets are shown the sender has not sent any weather packets the latest 10 day(s).
| Time | Temp. | Humidity | Pressure | Rain* | Wind** | Luminosity | Snow |
|---|---|---|---|---|---|---|---|
| 1778226000 | 10.56° C | 59% | 1019.9 hPa | 0 mm | 0.45 m/s, 38° | 268 W/m² | - |
| 1778225940 | 10.56° C | 59% | 1019.8 hPa | 0 mm | 0.89 m/s, 318° | 269 W/m² | - |
| 1778225880 | 10.56° C | 60% | 1019.9 hPa | 0 mm | 1.34 m/s, 31° | 327 W/m² | - |
| 1778225820 | 10.56° C | 61% | 1019.6 hPa | 0 mm | 1.34 m/s, 327° | 290 W/m² | - |
| 1778225760 | 10.56° C | 58% | 1019.9 hPa | 0 mm | 2.24 m/s, 1° | 341 W/m² | - |
| 1778225700 | 10.56° C | 58% | 1019.8 hPa | 0 mm | 1.34 m/s, 335° | 372 W/m² | - |
| 1778225642 | 10.56° C | 59% | 1019.9 hPa | 0 mm | 2.24 m/s, 351° | 384 W/m² | - |
| 1778225580 | 10.56° C | 60% | 1019.8 hPa | 0 mm | 0.89 m/s, 67° | 337 W/m² | - |
| 1778225520 | 10.56° C | 60% | 1019.8 hPa | 0 mm | 1.34 m/s, 344° | 265 W/m² | - |
| 1778225460 | 11.11° C | 57% | 1019.9 hPa | 0 mm | 2.68 m/s, 21° | 433 W/m² | - |
| 1778225403 | 11.11° C | 58% | 1019.7 hPa | 0 mm | 1.79 m/s, 343° | 472 W/m² | - |
| 1778225340 | 11.11° C | 59% | 1019.8 hPa | 0 mm | 1.79 m/s, 293° | 250 W/m² | - |
| 1778225220 | 11.11° C | 57% | 1019.9 hPa | 0 mm | 0.89 m/s, 31° | 245 W/m² | - |
| 1778225160 | 11.67° C | 55% | 1019.8 hPa | 0 mm | 2.68 m/s, 41° | 273 W/m² | - |
| 1778225100 | 11.67° C | 56% | 1019.9 hPa | 0 mm | 0.45 m/s, 44° | 321 W/m² | - |
| 1778225042 | 11.67° C | 56% | 1019.8 hPa | 0 mm | 1.34 m/s, 9° | 298 W/m² | - |
| 1778224980 | 11.11° C | 57% | 1019.9 hPa | 0 mm | 0.89 m/s, 327° | 322 W/m² | - |
| 1778224920 | 11.11° C | 58% | 1019.7 hPa | 0 mm | 0.89 m/s, 15° | 459 W/m² | - |
| 1778224860 | 11.11° C | 57% | 1019.8 hPa | 0 mm | 0.89 m/s, 51° | 395 W/m² | - |
| 1778224802 | 10.56° C | 59% | 1019.7 hPa | 0 mm | 0.89 m/s, 51° | 459 W/m² | - |
| 1778224742 | 10.56° C | 59% | 1019.9 hPa | 0 mm | 0.89 m/s, 332° | 433 W/m² | - |
| 1778224680 | 10.56° C | 57% | 1019.7 hPa | 0 mm | 1.34 m/s, 12° | 433 W/m² | - |
| 1778224620 | 10.56° C | 59% | 1019.7 hPa | 0 mm | 2.68 m/s, 347° | 417 W/m² | - |
| 1778224560 | 10.56° C | 60% | 1019.8 hPa | 0 mm | 1.34 m/s, 312° | 382 W/m² | - |
| 1778224500 | 10.56° C | 60% | 1019.8 hPa | 0 mm | 0.89 m/s, 318° | 375 W/m² | - |
* Rain latest hour (hover to see other rain measurements)
** Current wind speed in m/s (hover to see current wind gust speed)